Weather in Pozega

Croatia     45°20′04″N   17°40′39″E
temp.,
°C
wind,
m/s
gust,
m/s
humid.,
%
clouds,
%
prec.,
mm/h
press.,
hPa
HPBL,
m
29 june, wed
wed2923:00+23ene224983 0.0 101627
02:00+21ene33555 0.0 101450
05:00+19ene38605 0.0 1013144
08:00+26ese36435 0.0 1012346
11:00+34se46235 0.1 10111328
14:00+38ese44174 0.1 10093007
17:00+36e34249 0.3 10081457
20:00+23w6970100 0.9 1010326
30 june, thu
thu3023:00+19wsw1190100 0.2 101012
02:00+18ne11867 0.2 101111
05:00+18wsw11840 0.0 101212
08:00+24wsw24650 0.0 1012246
11:00+32w35342 0.0 10121569
14:00+34w35270 0.0 10112514
17:00+35nw342711 0.0 10092359
20:00+29nw224083 0.0 101032
1 july, fri
fri123:00+23wnw11440 0.0 101111
02:00+22w11410 0.0 101211
05:00+20wsw11490 0.0 101211
08:00+26sw22440 0.0 1013208
11:00+34s23260 0.0 10121616
14:00+38ssw33164 0.0 10103338
17:00+38w33145 0.0 10093436
20:00+31nnw353110 0.0 101070
2 july, sat
sat223:00+24nne495426 0.0 1014302
02:00+16wnw138853 0.8 1018102
05:00+16w119684 1.8 102024
08:00+17nw129069 1.8 1022362
11:00+25se015215 0.0 10221029
14:00+30n01370 0.0 10201646
17:00+30n32340 0.0 10181824
20:00+25n36510 0.0 1018139
3 july, sun
sun323:00+21n25580 0.0 102092
02:00+19n11680 0.0 102013
05:00+17wnw11750 0.0 102011
08:00+23wnw11540 0.0 1020400
11:00+30ne11350 0.0 10191358
14:00+33ene222663 0.0 10182098
17:00+33ne3225100 0.0 10162467
20:00+27n37400 0.0 1017168